Regional Weather Roundup
Issued by NWS Boston, MA

Home | Current Version | Previous Version | Text Only | Print | Product List | Glossary On
Versions: 1 2 3 4 5 6 7 8 9 10 11 12 13 14 15 16 17 18 19 20 21 22 23 24 25 26 27 28 29 30 31 32 33 34 35 36 37 38 39 40 41 42 43 44 45 46 47 48 49 50
000
ASUS41 KBOX 061210
RWRBOX

REGIONAL WEATHER ROUNDUP
NATIONAL WEATHER SERVICE TAUNTON MA
800 AM EDT MON JUL 06 2015

NOTE:  "FAIR" INDICATES FEW OR NO CLOUDS BELOW 12,000 FEET WITH NO
SIGNIFICANT WEATHER AND/OR OBSTRUCTIONS TO VISIBILITY.  THE FOLLOWING
OBSERVATION LOCATIONS DO NOT REPORT PRESENT WEATHER...PROVINCETOWN...
SMITHFIELD...BLOCK ISLAND...KEENE...AND OXFORD.

MAZALL-061300-
EASTERN MASSACHUSETTS

CITY           SKY/WX    TMP DP  RH WIND       PRES   REMARKS
BOSTON         MOSUNNY   74  61  63 CALM      30.15R
6HR MIN TEMP:  68; 6HR MAX TEMP:  75;

BEVERLY        MOSUNNY   71  61  70 CALM      30.15R
LAWRENCE       SUNNY     70  62  76 CALM      30.17R
BEDFORD        PTSUNNY   69  62  78 CALM      30.14S
BLUE HILL        N/A     69  61  75 W6        30.16R
NORWOOD        PTSUNNY   70  66  87 CALM      30.15S
MARSHFIELD     MOSUNNY   72  64  78 W5        30.17R
PLYMOUTH       PTSUNNY   70  66  87 CALM      30.16R
TAUNTON        PTSUNNY   72  66  81 CALM      30.16R
NEW BEDFORD    MOSUNNY   68  66  93 CALM      30.16R
$$

MAZALL-061300-
CAPE COD AND THE ISLANDS

CITY           SKY/WX    TMP DP  RH WIND       PRES   REMARKS
FALMOUTH       MOSUNNY   72  68  88 MISG      30.16S
HYANNIS        MOSUNNY   72  65  78 SW3       30.15R
CHATHAM        MOSUNNY   72  66  81 W3        30.16S
PROVINCETOWN   MOSUNNY   70  10  10 SW5       30.16R
NANTUCKET      MOSUNNY   68  65  90 SW10      30.16F
MARTHAS VNYRD  MOSUNNY   70  67  90 SW6       30.16F
$$

MAZALL-061300-
CENTRAL AND WESTERN MASSACHUSETTS

CITY           SKY/WX    TMP DP  RH WIND       PRES   REMARKS
WORCESTER      PTSUNNY   70  62  76 W3        30.19R
6HR MIN TEMP:  63; 6HR MAX TEMP:  70;

FITCHBURG      MOSUNNY   70  60  70 CALM      30.17S
ORANGE         PTSUNNY   61  59  93 CALM      30.17S
SPRINGFIELD    PTSUNNY   63  61  93 CALM      30.16R
WESTFIELD      PTSUNNY   64  60  87 CALM      30.17S
NORTH ADAMS    MOSUNNY   60  58  92 CALM      30.18S
PITTSFIELD     FOG       59  59 100 CALM      30.19R VSB 1/4
$$

RIZALL-061300-
RHODE ISLAND

CITY           SKY/WX    TMP DP  RH WIND       PRES   REMARKS
PROVIDENCE     PTSUNNY   69  64  84 S3        30.17S
6HR MIN TEMP:  63; 6HR MAX TEMP:  69;

NEWPORT        MOSUNNY   71  66  84 CALM      30.16S
BLOCK ISLAND   PTSUNNY   68  64  88 SW7       30.17S
SMITHFIELD     PTSUNNY   66  61  82 CALM      30.17R
WESTERLY       PTSUNNY   68  64  87 W3        30.18S
$$

CTZALL-061300-
CONNECTICUT

CITY           SKY/WX    TMP DP  RH WIND       PRES   REMARKS
BRADLEY INTL   PTSUNNY   66  61  84 CALM      30.16S
6HR MIN TEMP:  60; 6HR MAX TEMP:  66;

HARTFORD       MOSUNNY   67  64  90 SE9       30.17R
BRIDGEPORT     MOSUNNY   72  67  84 CALM      30.17S
DANBURY        MOSUNNY   65  61  87 CALM      30.19S FOG
GROTON         MOSUNNY   68  65  90 CALM      30.16S
NEW HAVEN      PTSUNNY   70  68  93 CALM      30.17S
CHESTER        NOT AVBL
MERIDEN        MOSUNNY   68  64  87 CALM      30.17S
WILLIMANTIC    PTSUNNY   64  61  90 CALM      30.18R
OXFORD         SUNNY     68  63  83 CALM      30.21R FOG
$$

MEZ002-015-021-024-NHZ003-005-008-011-012-014-VTZ005-008-061300-
NORTHERN NEW ENGLAND

CITY           SKY/WX    TMP DP  RH WIND       PRES   REMARKS
PORTLAND ME    MOSUNNY   70  61  73 NW3       30.16R
6HR MIN TEMP:  60; 6HR MAX TEMP:  70;

BANGOR ME      SUNNY     68  59  73 CALM      30.15R
CONCORD NH     SUNNY     66  61  84 CALM      30.17R
MANCHESTER NH  MOSUNNY   69  61  75 CALM      30.14S
NASHUA NH      SUNNY     67  61  81 CALM      30.16S
PORTSMOUTH NH  MOSUNNY   70  61  72 NW1       30.15R
JAFFREY NH     MOSUNNY   64  60  87 CALM      30.18S
KEENE NH       PTSUNNY   59  54  82 CALM      30.18S
BURLINGTON VT  MOSUNNY   67  60  78 E5        30.16S
MT. WASHINGTON NOT AVBL
$$

NYZ052-076-061300-
EASTERN NEW YORK

CITY           SKY/WX    TMP DP  RH WIND       PRES   REMARKS
ALBANY         PTSUNNY   65  60  84 CALM      30.16S
6HR MIN TEMP:  57; 6HR MAX TEMP:  65;

NEW YORK CITY  PTSUNNY   72  66  81 NE6       30.16R
6HR MIN TEMP:  71; 6HR MAX TEMP:  74;

$$

ANZALL-061300-
MARINE OBSERVATIONS

STATION/POSITION TIME  TEMP    WIND        PRES    VSBY  WAVE
                       AIR SEA DIR/SP/G                  HT/PER
                 (UTC) (F)     (DEG/KT/KT) (MB)    (MI)  (FT/S)
BOSTON BUOY      1150   64 62  260/  4/  6 1021.3R         1/ 8
BUZZARDS BAY     1100          230/  7/  7 1022.2R
NANTUCKET SOUND  1150   67 63  230/  6/  8 1021.0S         1
MASS BAY-STELLWA 1104   67 64  250/  2/  2 1019.7S  1 7/8  2/ 8
ISLE OF SHOALS   1200   67     330/  6/  6 1020.5R
S OF BLOCK IS    1108      65                N/A           3/ 8
$$

......................KEY.........................
  SKY/WX - SKY CONDITION/PRESENT WEATHER
  TMP    - TEMPERATURE IN FAHRENHEIT
  DWPT   - DEWPOINT IN FAHRENHEIT
  RH     - RELATIVE HUMIDITY IN PERCENT
  WIND   - DIRECTION AND SPEED IN MPH
  PRES   - MEAN SEA LEVEL PRESSURE IN INCHES OF HG
  WCI    - WIND CHILL INDEX
  VSB    - VISIBILITY IN MILES
  HX     - HEAT INDEX
  TC     - TEMPERATURE IN CELSIUS
  VRB    - VARIABLE WIND DIRECTION
  N/A    - NOT AVAILABLE



USA.gov is the U.S. government's official web portal to all federal, state and local government web resources and services.